RH
10 13 16 16 15 13 13 16 18 23 23 22 20 20 20 18 20 22 23 24 26 27 29 33 34 39 47 57 56 61 64 63 61 61 61 70 77 83 84 84 86 80 88 80 64 54 52
9 11 15 16 16 15 14 15 18 20 24 24 23 21 21 18 18 20 23 24 26 27 28 31 32 37 45 54 57 61 66 63 59 63 66 73 79 83 82 81 87 89 86 91 86 63 48
9 10 13 15 15 15 15 14 17 21 22 24 23 23 22 20 18 19 21 22 24 26 28 30 32 36 45 52 58 61 60 62 57 62 69 73 76 84 79 78 85 90 89 87 82 76 54
10 11 13 15 14 13 14 14 14 18 23 25 24 23 23 22 20 19 19 20 22 25 26 28 31 35 45 47 53 63 66 64 61 60 67 69 76 87 83 84 84 88 90 83 75 76 64
10 11 13 16 16 15 13 13 13 14 18 23 25 25 23 24 23 21 20 19 20 23 25 28 31 36 42 44 52 58 66 69 67 68 71 73 72 82 88 87 89 86 89 86 87 71 67
11 11 12 17 18 18 17 15 14 13 15 18 21 27 25 24 24 23 22 20 20 21 24 26 31 38 39 41 47 54 62 69 75 78 80 74 80 70 75 91 90 86 81 79 79 70 64
12 13 13 16 19 20 18 18 17 15 14 16 19 22 27 27 25 25 25 22 23 26 24 25 28 32 36 38 44 50 56 65 74 83 78 77 74 81 70 78 79 76 74 73 74 70 64
12 13 13 15 18 20 19 19 19 18 16 15 19 21 23 26 29 27 27 28 24 23 25 24 25 30 35 38 44 48 50 60 68 77 80 80 78 71 67 68 73 72 77 75 73 68 64
10 11 11 14 17 20 20 19 20 20 19 18 16 21 23 23 25 29 29 29 28 26 28 25 26 28 33 37 42 45 50 57 60 65 70 80 78 73 73 73 73 73 74 76 75 68 62
10 10 10 12 16 19 19 18 19 19 19 19 19 17 22 24 26 28 29 33 33 32 33 26 24 29 31 35 41 42 47 51 55 56 59 67 75 80 76 73 72 85 71 74 69 69 63
14 13 13 13 15 17 18 19 17 17 16 16 17 16 16 23 26 28 30 31 36 35 61 25 25 25 29 31 34 42 43 49 50 53 54 56 62 73 83 74 76 84 68 65 70 67 67
22 20 17 18 18 20 20 21 17 15 15 17 16 16 16 15 21 27 30 33 36 47 61 34 26 28 27 29 31 34 40 44 45 48 48 52 61 61 70 71 77 74 66 62 65 71 77
22 23 25 26 24 23 23 23 22 18 17 18 18 18 19 19 18 19 27 35 50 51 33 34 32 29 28 27 29 30 34 38 44 53 50 47 52 59 62 68 66 62 74 84 81 86 84
25 24 24 26 27 26 24 25 26 25 23 19 19 21 21 20 21 20 19 32 51 34 34 36 36 33 31 29 27 29 31 32 38 43 45 49 55 45 51 63 66 63 74 81 93 70 76
32 30 28 27 26 26 24 26 27 21 19 19 17 14 15 16 18 17 21 32 31 32 37 37 38 36 34 31 30 27 27 28 31 37 46 44 44 43 46 52 59 65 67 64 68 58 61
36 33 33 30 31 30 29 29 29 27 23 20 18 17 17 19 19 18 21 25 19 24 35 40 38 38 37 32 31 30 28 27 29 31 36 43 48 40 48 50 52 55 58 67 67 73 64
27 27 27 24 22 21 23 28 31 35 33 31 29 25 24 23 22 24 30 24 19 20 22 37 40 39 39 39 37 33 29 32 31 29 31 35 43 45 43 48 48 52 52 52 54 56 58
45 44 43 38 34 36 36 32 37 36 38 36 34 29 27 26 27 26 24 23 22 22 21 23 37 40 41 40 42 39 36 33 34 38 34 33 34 39 36 38 44 48 49 49 50 51 43
53 51 52 48 45 43 41 42 39 49 53 57 59 49 33 27 32 34 27 22 22 23 26 28 27 33 39 44 43 45 44 41 40 40 38 38 38 37 34 35 36 34 33 39 37 39 41
17 17 17 18 18 18 20 22 21 22 33 46 59 64 60 48 41 39 37 33 25 24 27 31 28 23 28 38 46 44 47 48 45 44 43 43 41 37 36 35 37 40 40 36 34 40 32
22 24 24 23 23 22 21 17 19 16 18 28 35 37 43 44 43 39 41 42 40 34 30 27 31 29 25 31 39 47 46 48 54 53 50 47 44 43 41 39 39 40 40 41 40 32 31
22 21 20 20 20 19 20 23 22 23 20 33 41 45 40 34 35 34 38 38 43 42 34 35 30 29 30 25 27 34 44 48 47 57 57 53 52 49 44 43 43 43 42 42 42 38 33
18 17 17 17 17 17 16 16 17 17 27 33 44 49 56 50 49 46 39 37 34 41 36 34 37 30 33 31 28 30 39 44 49 51 55 58 61 58 53 51 49 45 44 42 41 41 37
17 17 17 17 17 17 16 16 16 16 21 29 36 42 49 48 51 51 50 48 41 39 37 33 37 47 35 34 35 30 31 38 46 50 55 57 57 58 61 60 60 49 46 45 44 42 40
18 18 18 17 17 17 18 17 18 18 21 26 29 37 48 46 45 47 49 51 54 50 47 38 37 40 45 48 43 40 34 33 37 47 52 56 60 61 61 56 53 53 54 51 51 48 47
19 19 19 19 19 19 25 23 22 23 22 30 37 36 43 46 41 43 46 50 55 60 47 56 48 36 37 39 44 42 43 36 39 45 51 57 60 58 64 68 62 51 56 58 58 55 53
27 27 26 26 27 26 25 25 25 28 31 33 35 42 51 48 35 42 43 59 64 63 56 49 56 62 48 41 46 47 42 43 42 39 49 54 59 61 59 61 52 52 55 58 61 59 61
23 23 24 22 22 22 27 29 28 31 38 49 44 42 53 57 40 42 42 48 50 63 65 65 63 57 65 56 43 40 41 39 45 39 37 38 48 55 56 57 55 48 53 53 54 56 58
32 29 27 25 22 19 23 32 34 36 46 53 52 50 57 65 51 56 44 39 34 51 72 75 71 62 60 64 57 44 41 42 40 41 43 38 29 37 41 43 43 42 43 49 51 53 59